This demonstration page uses our WeatherBlox Daily Observations layout. Learn more.

Left ArrowRight Arrow

39.12711, -84.51439

Hourly Observations for May 8, 2018

Temp ( °F °C ) Dew Point ( °F °C ) Humidity (%) Winds ( mph kmh ) Pressure ( in mb ) Visibility ( mi km ) Precip ( " mm )
12:53 am 00:53 Clear 50 10 50 10 100 100 Calm 30.16 1022 10 16 0.00 0.00
1:53 am 01:53 Clear 49 9.4 48 8.9 97 97 Calm 30.16 1022 10 16 0.00 0.00
2:53 am 02:53 Clear 48 8.9 48 8.9 100 100 Calm 30.16 1021 10 16 0.00 0.00
3:53 am 03:53 Clear 46 7.8 46 7.8 100 100 Calm 30.16 1021 10 16 0.00 0.00
4:03 am 04:03 Clear with Mist and Fog 46 7.8 46 7.8 100 100 Calm 30.15 1021 1 1 0.00 0.00
4:14 am 04:14 Clear with Mist and Fog 46 7.8 46 7.8 100 100 Calm 30.18 1022 3 4 0.00 0.00
4:21 am 04:21 Clear 47 8.3 47 8.3 100 100 Calm 30.18 1022 8 13 0.00 0.00
4:53 am 04:53 Clear with Mist and Fog 46 7.8 46 7.8 100 100 Calm 30.16 1021 3 4 0.00 0.00
5:14 am 05:14 Clear with Mist and Fog 46 7.8 46 7.8 100 100 Calm 30.18 1022 2 3 0.00 0.00
5:16 am 05:16 Clear with Mist and Fog 46 7.8 46 7.8 100 100 Calm 30.18 1022 3 5 0.00 0.00
5:53 am 05:53 Clear 46 7.8 46 7.8 100 100 Calm 30.17 1022 8 13 0.00 0.00
6:14 am 06:14 Clear with Mist and Fog 44 6.7 44 6.7 100 100 Calm 30.18 1022 1 2 0.00 0.00
6:21 am 06:21 Mostly Cloudy with Fog 45 7.2 45 7.2 100 100 Calm 30.18 1022 1 1 0.00 0.00
6:31 am 06:31 Clear with Fog 45 7.2 45 7.2 100 100 Calm 30.18 1022 0 0 0.00 0.00
6:41 am 06:41 Mostly Cloudy with Fog 44 6.7 44 6.7 100 100 Calm 30.18 1022 0 0 0.00 0.00
6:49 am 06:49 Sunny with Patchy Fog 45 7 45 7 100 100 Calm 30.18 1022 10 16 0.00 0.00
6:50 am 06:50 Sunny with Patchy Fog 45 7.2 45 7.2 100 100 Calm 30.18 1022 10 16 0.00 0.00
7:53 am 07:53 Sunny 50 10 49 9.4 96 96 Calm 30.19 1022 10 16 0.00 0.00
8:53 am 08:53 Sunny 57 13.9 50 10 78 78 Calm 30.19 1023 10 16 0.00 0.00
9:53 am 09:53 Sunny 62 16.7 51 10.6 67 67 Calm 30.20 1023 10 16 0.00 0.00
10:53 am 10:53 Sunny 67 19.4 45 7.2 45 45 NNE 5 7 30.19 1022 10 16 0.00 0.00
11:53 am 11:53 Sunny 70 21.1 47 8.3 44 44 Calm 30.18 1022 10 16 0.00 0.00
12:53 pm 12:53 Sunny 73 22.8 52 11.1 48 48 VRB 3 6 30.16 1021 10 16 0.00 0.00
1:53 pm 13:53 Sunny 74 23.3 50 10 43 43 VRB 5 7 30.14 1021 10 16 0.00 0.00
2:53 pm 14:53 Sunny 76 24.4 49 9.4 39 39 Calm 30.12 1020 10 16 0.00 0.00
3:53 pm 15:53 Sunny 76 24.4 51 10.6 42 42 WSW 6 9 30.11 1020 10 16 0.00 0.00
4:53 pm 16:53 Sunny 77 25 53 11.7 43 43 WSW 9 15 30.09 1019 10 16 0.00 0.00
5:53 pm 17:53 Partly Cloudy 77 25 51 10.6 40 40 SW 3 6 30.08 1019 10 16 0.00 0.00
6:53 pm 18:53 Mostly Sunny 76 24.4 54 12.2 47 47 SSW 6 9 30.07 1018 10 16 0.00 0.00
7:53 pm 19:53 Sunny 76 24.4 47 8.3 36 36 Calm 30.06 1018 10 16 0.00 0.00
8:53 pm 20:53 Clear 65 18.3 56 13.3 73 73 Calm 30.07 1018 10 16 0.00 0.00
9:53 pm 21:53 Clear 61 16.1 56 13.3 84 84 Calm 30.08 1019 10 16 0.00 0.00
10:53 pm 22:53 Clear 59 15 54 12.2 83 83 Calm 30.08 1019 10 16 0.00 0.00
11:53 pm 23:53 Clear 57 13.9 54 12.2 90 90 Calm 30.08 1019 10 16 0.00 0.00

Powered by AerisWeather